TimeEST,TemperatureF,Dew PointF,Humidity,Sea Level PressureIn,VisibilityMPH,Wind Direction,Wind SpeedMPH,Gust SpeedMPH,PrecipitationIn,Events,Conditions,WindDirDegrees,DateUTC
12:14 AM,36.3,31.6,83,30.38,10.0,WNW,4.6,-,N/A,,Clear,290,2012-11-16 05:14:00
12:35 AM,36.5,31.6,83,30.38,10.0,WNW,5.8,-,N/A,,Clear,300,2012-11-16 05:35:00
12:54 AM,36.1,31.3,83,30.38,10.0,WNW,4.6,-,N/A,,Clear,300,2012-11-16 05:54:00
1:15 AM,34.7,30.6,85,30.39,10.0,Calm,Calm,-,N/A,,Clear,0,2012-11-16 06:15:00
1:35 AM,35.2,31.1,85,30.38,10.0,Calm,Calm,-,N/A,,Clear,0,2012-11-16 06:35:00
1:54 AM,34.9,30.4,84,30.39,10.0,Calm,Calm,-,N/A,,Clear,0,2012-11-16 06:54:00
2:15 AM,34.2,30.6,87,30.39,10.0,Calm,Calm,-,N/A,,Clear,0,2012-11-16 07:15:00
2:34 AM,34.2,30.7,87,30.41,10.0,Calm,Calm,-,N/A,,Clear,0,2012-11-16 07:34:00
2:55 AM,33.8,30.0,86,30.41,10.0,Calm,Calm,-,N/A,,Clear,0,2012-11-16 07:55:00
3:15 AM,33.6,29.8,86,30.41,10.0,Calm,Calm,-,N/A,,Clear,0,2012-11-16 08:15:00
3:34 AM,34.0,30.0,85,30.41,10.0,WNW,3.5,-,N/A,,Clear,290,2012-11-16 08:34:00
3:55 AM,34.7,30.7,85,30.40,10.0,WNW,4.6,-,N/A,,Clear,290,2012-11-16 08:55:00
4:15 AM,34.0,30.2,86,30.41,10.0,Calm,Calm,-,N/A,,Clear,0,2012-11-16 09:15:00
4:34 AM,34.0,30.6,87,30.41,10.0,WNW,3.5,-,N/A,,Clear,290,2012-11-16 09:34:00
4:55 AM,33.3,30.0,88,30.41,7.0,Calm,Calm,-,N/A,,Clear,0,2012-11-16 09:55:00
5:15 AM,32.9,30.0,89,30.42,7.0,Calm,Calm,-,N/A,,Clear,0,2012-11-16 10:15:00
5:34 AM,32.2,29.3,89,30.42,7.0,Calm,Calm,-,N/A,,Clear,0,2012-11-16 10:34:00
5:55 AM,32.2,29.8,91,30.42,7.0,Calm,Calm,-,N/A,,Clear,0,2012-11-16 10:55:00
6:15 AM,32.4,30.0,91,30.42,7.0,Calm,Calm,-,N/A,,Clear,0,2012-11-16 11:15:00
6:34 AM,32.0,29.7,91,30.43,7.0,Calm,Calm,-,N/A,,Clear,0,2012-11-16 11:34:00
6:55 AM,32.0,29.8,92,30.43,7.0,Calm,Calm,-,N/A,,Clear,0,2012-11-16 11:55:00
7:14 AM,32.0,29.3,90,30.44,7.0,Calm,Calm,-,N/A,,Clear,0,2012-11-16 12:14:00
7:35 AM,32.0,29.3,90,30.45,5.0,Calm,Calm,-,N/A,,Clear,0,2012-11-16 12:35:00
7:55 AM,32.5,30.2,91,30.45,5.0,Calm,Calm,-,N/A,,Clear,0,2012-11-16 12:55:00
8:14 AM,33.3,30.4,89,30.45,7.0,Calm,Calm,-,N/A,,Clear,0,2012-11-16 13:14:00
8:35 AM,36.0,31.6,84,30.46,7.0,Calm,Calm,-,N/A,,Clear,0,2012-11-16 13:35:00
8:54 AM,37.6,32.0,80,30.46,7.0,Calm,Calm,-,N/A,,Clear,0,2012-11-16 13:54:00
9:15 AM,39.9,32.0,73,30.46,7.0,Calm,Calm,-,N/A,,Clear,0,2012-11-16 14:15:00
9:35 AM,43.0,32.0,65,30.47,10.0,NNW,5.8,-,N/A,,Clear,340,2012-11-16 14:35:00
9:54 AM,44.2,32.4,63,30.47,10.0,NNW,3.5,-,N/A,,Clear,330,2012-11-16 14:54:00
10:15 AM,46.0,33.8,62,30.47,10.0,North,4.6,-,N/A,,Clear,350,2012-11-16 15:15:00
10:34 AM,47.3,34.9,62,30.47,10.0,North,3.5,-,N/A,,Clear,350,2012-11-16 15:34:00
10:55 AM,49.1,35.6,60,30.47,7.0,Calm,Calm,-,N/A,,Clear,0,2012-11-16 15:55:00
11:15 AM,49.5,35.2,58,30.47,7.0,Calm,Calm,-,N/A,,Clear,0,2012-11-16 16:15:00
11:34 AM,50.0,35.1,57,30.47,10.0,Calm,Calm,-,N/A,,Clear,0,2012-11-16 16:34:00
11:55 AM,51.6,35.1,53,30.47,10.0,Calm,Calm,-,N/A,,Clear,0,2012-11-16 16:55:00
12:15 PM,52.0,34.0,50,30.46,10.0,Calm,Calm,-,N/A,,Clear,0,2012-11-16 17:15:00
12:34 PM,52.3,34.3,50,30.46,10.0,Calm,Calm,-,N/A,,Clear,0,2012-11-16 17:34:00
12:55 PM,53.6,33.3,46,30.46,10.0,South,3.5,-,N/A,,Clear,190,2012-11-16 17:55:00
1:15 PM,54.5,32.7,44,30.45,10.0,Calm,Calm,-,N/A,,Clear,0,2012-11-16 18:15:00
1:34 PM,55.4,31.6,40,30.45,10.0,Calm,Calm,-,N/A,,Clear,0,2012-11-16 18:34:00
1:55 PM,56.3,31.1,38,30.45,10.0,Calm,Calm,-,N/A,,Clear,0,2012-11-16 18:55:00
2:14 PM,55.6,31.8,41,30.46,10.0,WSW,4.6,-,N/A,,Clear,250,2012-11-16 19:14:00
2:35 PM,55.0,32.0,42,30.46,10.0,Calm,Calm,-,N/A,,Clear,0,2012-11-16 19:35:00
2:55 PM,56.1,31.6,39,30.46,10.0,NW,3.5,-,N/A,,Clear,320,2012-11-16 19:55:00
3:14 PM,56.3,30.4,37,30.46,10.0,WSW,3.5,-,N/A,,Clear,240,2012-11-16 20:14:00
3:35 PM,55.9,29.5,36,30.47,10.0,Calm,Calm,-,N/A,,Clear,0,2012-11-16 20:35:00
3:55 PM,55.8,28.9,36,30.47,10.0,WNW,5.8,-,N/A,,Clear,300,2012-11-16 20:55:00
4:14 PM,55.6,29.1,36,30.47,10.0,NW,3.5,-,N/A,,Clear,320,2012-11-16 21:14:00
4:35 PM,55.0,29.1,37,30.48,10.0,WNW,4.6,-,N/A,,Clear,300,2012-11-16 21:35:00
4:55 PM,54.1,29.5,39,30.48,10.0,Calm,Calm,-,N/A,,Clear,0,2012-11-16 21:55:00
5:14 PM,53.4,29.7,40,30.48,10.0,Calm,Calm,-,N/A,,Clear,0,2012-11-16 22:14:00
5:35 PM,50.5,30.9,47,30.49,10.0,West,3.5,-,N/A,,Clear,260,2012-11-16 22:35:00
5:54 PM,50.4,30.9,47,30.49,10.0,WNW,3.5,-,N/A,,Clear,290,2012-11-16 22:54:00
6:15 PM,50.0,31.5,49,30.50,10.0,North,5.8,-,N/A,,Clear,360,2012-11-16 23:15:00
6:35 PM,48.7,33.4,56,30.50,10.0,NNE,5.8,-,N/A,,Clear,30,2012-11-16 23:35:00
7:15 PM,47.3,35.2,63,30.51,10.0,NE,4.6,-,N/A,,Clear,40,2012-11-17 00:15:00
7:35 PM,46.0,34.7,65,30.51,10.0,NE,3.5,-,N/A,,Clear,50,2012-11-17 00:35:00
7:54 PM,45.7,34.9,66,30.51,7.0,Calm,Calm,-,N/A,,Clear,0,2012-11-17 00:54:00
8:15 PM,45.5,34.7,66,30.51,7.0,ENE,3.5,-,N/A,,Clear,70,2012-11-17 01:15:00
8:35 PM,43.2,34.3,71,30.51,7.0,ENE,3.5,-,N/A,,Clear,60,2012-11-17 01:35:00
8:54 PM,43.0,34.2,71,30.52,7.0,ENE,3.5,-,N/A,,Clear,60,2012-11-17 01:54:00
9:15 PM,42.8,35.6,76,30.52,7.0,NE,3.5,-,N/A,,Clear,40,2012-11-17 02:15:00
9:34 PM,41.9,35.8,79,30.52,7.0,NE,3.5,-,N/A,,Clear,50,2012-11-17 02:34:00
9:55 PM,41.2,35.4,80,30.52,7.0,ENE,3.5,-,N/A,,Clear,60,2012-11-17 02:55:00
10:15 PM,41.2,36.3,83,30.53,5.0,Calm,Calm,-,N/A,,Haze,0,2012-11-17 03:15:00
10:34 PM,41.4,36.5,83,30.53,5.0,NE,3.5,-,N/A,,Clear,50,2012-11-17 03:34:00
10:55 PM,41.0,36.5,84,30.53,5.0,NE,3.5,-,N/A,,Clear,50,2012-11-17 03:55:00
11:15 PM,40.5,36.9,87,30.53,4.0,Calm,Calm,-,N/A,,Clear,0,2012-11-17 04:15:00
11:34 PM,39.9,36.5,88,30.52,3.0,Calm,Calm,-,N/A,,Clear,0,2012-11-17 04:34:00
11:55 PM,39.2,36.5,90,30.53,3.0,Calm,Calm,-,N/A,,Clear,0,2012-11-17 04:55:00